DW6145 Weather Reports


time (UTC)temp
F
wind
direction
speed
knots
gust
knots
rain 1hr
in
rain 24hr
in
rain mn
in
humidity
%
barometer
mb
20260507052601 60 118 0.9 3.5 0.00 1.34 0.01 97 466.4
20260507051602 59 118 0.9 3.5 0.00 1.34 0.01 97 467.9
20260507050615 59 127 0.0 2.6 0.00 1.34 0.01 97 468.8
20260507045602 59 127 0.0 1.7 0.00 1.34 0.01 97 484.5
20260507044605 58 127 0.0 0.0 0.00 1.34 0.01 97 472.7
20260507044041 58 127 0.0 0.0 0.00 1.34 0.01 96 466.1
20260507042603 58 127 0.0 0.0 0.00 1.34 0.01 96 470.9
20260507041603 58 127 0.0 0.0 0.00 1.34 0.01 96 498.6
20260507040606 58 127 1.7 4.3 0.00 1.34 0.01 96 468.4
20260507040056 58 127 1.7 3.5 0.00 1.34 0.01 96 467.9
20260507034604 58 127 0.0 2.6 0.00 1.34 0.01 96 468.7
20260507033602 58 127 0.0 0.0 0.00 1.34 0.01 96 475.6
20260507032602 58 127 0.0 0.0 0.00 1.34 0.01 96 468.3
20260507031606 58 127 0.0 2.6 0.00 1.34 0.01 96 467.9
20260507030602 58 127 0.0 2.6 0.00 1.34 0.01 96 458.7
20260507025602 59 127 0.0 0.0 0.00 1.34 0.01 96 459.9
20260507024605 59 127 0.0 0.0 0.00 1.34 0.01 96 556.6
20260507023604 59 127 0.0 3.5 0.00 1.34 0.01 96 467.9
20260507022602 60 123 1.7 5.2 0.00 1.34 0.01 96 468.0
20260507021603 60 131 1.7 4.3 0.00 1.34 0.01 96 467.9
20260507020604 60 138 0.0 2.6 0.00 1.34 0.01 95 495.5
20260507015602 60 138 0.0 0.0 0.00 1.34 0.01 95 468.1
20260507014604 60 138 0.0 0.0 0.00 1.34 0.01 95 467.9
20260507013603 60 138 0.0 0.0 0.00 1.34 0.01 95 468.2
20260507012602 60 138 0.0 2.6 0.00 1.34 0.01 95 468.1
20260507011603 59 138 0.0 0.0 0.00 1.34 0.01 95 467.9
20260507010605 59 138 0.0 2.6 0.00 1.34 0.01 95 468.0
20260507005600 59 138 0.0 2.6 0.00 1.34 0.01 94 468.0
20260507004600 59 138 1.7 2.6 0.00 1.34 0.01 94 469.8
20260507003552 60 138 0.9 3.5 0.00 1.34 0.01 94 467.2
20260507002553 60 138 0.0 3.5 0.00 1.34 0.01 94 468.0
20260507001550 60 138 0.0 2.6 0.00 1.34 0.01 94 467.9
20260507001037 59 138 0.0 0.0 0.00 1.34 0.01 94 468.1
20260506235545 59 138 0.0 0.0 0.00 1.34 0.01 94 473.3
20260506235024 59 138 0.0 0.0 0.00 1.34 0.01 94 467.5
20260506233542 59 138 0.0 0.0 0.01 1.34 0.01 94 467.5
20260506232541 59 138 1.7 6.1 0.01 1.34 0.01 94 468.0
20260506231534 59 135 0.9 3.5 0.01 1.34 0.01 94 468.0
20260506231037 59 136 0.9 4.3 0.01 1.34 0.01 94 468.0
20260506230448 59 139 0.0 4.3 0.01 1.33 0.01 94 478.5
20260506224531 59 175 0.9 2.6 0.01 1.33 0.01 93 468.0
20260506224015 59 175 0.0 0.0 0.00 1.33 0.00 93 467.2
20260506222532 59 175 0.0 0.0 0.00 1.33 0.00 93 467.9
20260506221531 59 175 0.0 0.0 0.00 1.34 0.00 93 466.9
20260506220530 59 175 0.0 0.0 0.00 1.35 0.00 93 468.0
20260506215524 58 175 0.0 0.0 0.00 1.35 1.35 92 468.0
20260506214523 59 175 0.0 0.0 0.00 1.35 1.35 92 467.9
20260506213524 59 175 0.0 0.0 0.00 1.35 1.35 92 468.0
20260506212516 59 175 0.0 0.0 0.00 1.37 1.35 92 468.0
20260506211517 59 175 0.0 0.0 0.00 1.37 1.35 92 468.0
20260506210516 59 175 0.0 0.0 0.00 1.37 1.35 92 465.0
20260506205516 59 175 0.0 0.0 0.00 1.37 1.35 92 468.0
20260506204516 59 175 0.0 0.0 0.00 1.37 1.35 92 468.0
20260506203510 59 175 0.0 0.0 0.00 1.37 1.35 92 456.4
20260506202947 59 175 0.9 5.2 0.00 1.37 1.35 91 473.5
20260506201510 59 160 1.7 5.2 0.00 1.37 1.35 92 468.0
20260506200510 60 158 1.7 6.1 0.00 1.37 1.35 93 473.3
20260506195505 60 159 0.0 4.3 0.00 1.38 1.35 93 619.6
20260506194507 60 184 1.7 5.2 0.00 1.40 1.35 94 468.0
20260506193506 60 180 0.9 5.2 0.01 1.41 1.35 94 479.7
20260506192506 60 159 0.9 6.1 0.06 1.42 1.35 94 467.2
20260506191502 61 171 0.9 5.2 0.06 1.42 1.35 94 468.0
20260506190504 61 186 2.6 6.1 0.06 1.43 1.35 93 494.6
20260506185505 61 180 2.6 8.7 0.06 1.38 1.35 93 468.3
20260506184504 61 191 2.6 7.8 0.06 1.38 1.35 93 468.1
20260506183503 61 215 4.3 12.2 0.06 1.38 1.33 93 468.0
20260506182946 61 198 2.6 8.7 0.00 1.38 1.28 93 468.0
20260506181501 61 221 3.5 7.8 0.00 1.39 1.28 93 468.1
20260506180456 61 209 1.7 5.2 0.00 1.39 1.28 93 468.1
20260506175458 61 213 1.7 6.1 0.00 1.39 1.28 93 464.0
20260506174452 61 198 0.9 4.3 0.00 1.39 1.28 93 468.0
20260506173454 60 207 0.0 2.6 0.00 1.39 1.28 93 453.1
20260506172450 60 189 1.7 6.1 0.00 1.39 1.28 92 468.0
20260506171447 60 210 1.7 7.0 0.00 1.39 1.28 92 723.2
20260506170458 60 201 2.6 8.7 0.00 1.39 1.28 92 447.2
20260506165442 61 220 3.5 7.8 0.02 1.37 1.28 92 473.3
20260506164447 61 195 4.3 11.3 0.02 1.37 1.28 91 466.6
20260506163444 61 202 5.2 10.4 0.02 1.37 1.28 92 475.9
20260506163408 61 210 4.3 9.6 0.02 1.37 1.28 92 468.1
20260506161442 61 221 2.6 9.6 0.02 1.37 1.28 92 468.1
20260506160443 62 211 0.9 5.2 0.02 1.37 1.28 92 470.4
20260506155442 62 186 0.9 6.1 0.00 1.36 1.26 90 468.1
20260506154444 62 179 0.9 6.1 0.00 1.36 1.26 90 622.3
20260506153444 62 167 3.5 9.6 0.00 1.37 1.26 88 467.5
20260506152922 62 163 5.2 12.2 0.00 1.37 1.26 88 445.6
20260506152402 62 196 5.2 12.2 0.00 1.37 1.26 88 468.0
20260506150440 62 190 4.3 9.6 0.00 1.37 1.26 90 440.1
20260506145918 62 184 4.3 10.4 0.01 1.38 1.26 91 468.4
20260506144437 62 150 5.2 10.4 0.01 1.38 1.26 91 483.9
20260506143438 62 188 4.3 12.2 0.01 1.39 1.26 92 468.0
20260506142915 62 183 4.3 10.4 0.02 1.39 1.26 93 468.7
20260506141431 62 188 1.7 8.7 0.03 1.40 1.26 93 473.3
20260506140432 62 195 2.6 8.7 0.03 1.41 1.26 93 468.0
20260506135430 61 175 3.5 8.7 0.02 1.39 1.25 92 484.3
20260506134431 61 167 4.3 13.9 0.02 1.40 1.25 92 468.0
20260506133430 61 165 5.2 13.0 0.02 1.43 1.25 92 471.5
20260506132432 61 179 6.1 12.2 0.02 1.47 1.24 92 478.5
20260506131432 62 178 4.3 11.3 0.01 1.52 1.23 91 466.0
20260506130430 61 196 6.1 14.8 0.02 1.57 1.23 90 467.9
20260506125432 61 217 7.8 13.9 0.02 1.55 1.23 90 468.0
20260506124431 60 177 6.1 13.9 0.02 1.55 1.23 91 473.3
20260506123430 61 188 4.3 10.4 0.02 1.55 1.23 94 436.1
20260506122432 61 207 5.2 9.6 0.02 1.55 1.22 94 467.9
20260506121431 60 175 6.1 14.8 0.02 1.55 1.22 93 478.5
20260506120430 60 171 4.3 11.3 0.06 1.55 1.21 94 483.9
20260506115431 60 168 6.1 13.0 0.06 1.49 1.21 94 472.6
20260506114432 60 180 6.1 10.4 0.08 1.49 1.21 95 467.3
20260506113432 60 167 4.3 10.4 0.16 1.49 1.21 95 473.3
20260506112430 60 188 7.0 16.5 0.32 1.49 1.20 95 467.9
20260506111917 60 155 6.1 15.6 0.61 1.49 1.20 95 485.3
20260506110429 60 192 5.2 14.8 0.65 1.49 1.15 96 468.0
20260506105433 59 190 4.3 8.7 0.67 0.83 1.15 96 465.4
20260506104426 59 198 4.3 13.0 0.70 0.83 1.13 95 607.6
20260506103428 59 114 4.3 10.4 0.64 0.83 1.05 95 468.1
20260506102425 59 130 3.5 7.8 0.50 1.22 0.87 95 467.2
20260506101426 59 151 4.3 12.2 0.23 0.94 0.60 95 474.0
20260506100418 59 161 2.6 7.8 0.13 0.84 0.50 95 468.0
20260506095418 59 146 0.9 5.2 0.11 0.82 0.48 95 480.8
20260506094858 59 185 1.7 5.2 0.07 0.77 0.43 95 484.2
20260506093415 59 173 4.3 8.7 0.06 0.76 0.42 95 467.9
20260506092417 60 174 5.2 8.7 0.02 0.72 0.38 95 466.4
20260506091412 60 153 4.3 12.2 0.02 0.71 0.37 96 468.0
20260506090413 59 155 3.5 9.6 0.02 0.71 0.37 95 468.4
20260506085408 60 143 4.3 9.6 0.03 0.71 0.37 96 468.0
20260506084410 59 147 5.2 9.6 0.04 0.70 0.36 96 467.9
20260506083406 59 158 5.2 11.3 0.06 0.70 0.36 96 455.6
20260506082405 59 141 4.3 9.6 0.06 0.70 0.36 96 467.9
20260506081402 59 132 1.7 7.0 0.05 0.69 0.35 96 470.9
20260506080858 59 131 3.5 7.0 0.04 0.69 0.35 96 625.4
20260506073403 59 121 2.6 7.0 0.06 0.65 0.31 96 465.6
20260506072404 58 107 3.5 8.7 0.12 0.65 0.31 96 426.8
20260506071402 58 109 4.3 7.8 0.17 0.65 0.31 96 468.0
20260506070402 58 103 2.6 6.1 0.23 0.65 0.31 96 468.0
20260506062403 58 114 1.7 7.8 0.17 0.53 0.19 94 468.0
20260506061404 58 67 1.7 2.6 0.13 0.48 0.14 94 664.2
20260506060404 59 67 0.9 2.6 0.06 0.42 0.08 93 468.5